Weather History for Chicopee, MA

Change the Weather History Date:

Monday, April 8, 2013

  Actual Average Record
Temperature  
Mean Temperature 48 °F -  
Max Temperature 66 °F 53 °F 73 °F (1999)
Min Temperature 32 °F 33 °F 24 °F (2004)
Degree Days  
Heating Degree Days 16    
Moisture  
Dew Point 35 °F    
Average Humidity 91    
Maximum Humidity 100    
Minimum Humidity 31    
Precipitation  
Precipitation 0.00 in - - ()
Sea Level Pressure  
Sea Level Pressure 30.01 in    
Wind  
Wind Speed 2 mph (South)    
Max Wind Speed 10 mph    
Max Gust Speed -    
Visibility 3 miles    
Events Fog    
Averages and records for this station are not official NWS values.
T = Trace of Precipitation, MM = Missing Value Source: NWS Daily Summary

Daily Weather History Graph

Daily Weather History Graph

Search for Another Location

Airport:

Trip Planner

Search our weather history database for the weather conditions in past years. The results will help you decide how hot, cold, wet, or windy it might be!

Date:

Astronomy

Apr. 08, 2013 Rise Set
Actual Time 6:20 AM EDT 7:23 PM EDT
Civil Twilight 5:51 AM EDT 7:52 PM EDT
Nautical Twilight 5:17 AM EDT 8:26 PM EDT
Astronomical Twilight 4:42 AM EDT 9:02 PM EDT
Moon 5:10 AM EDT (4/8) 5:54 PM EDT (4/8)
Length of Visible Light 14h 00m
Length of Day
13h 03m
Waning Crescent, 3% of the Moon is Illuminated
Apr 8
Waning Crescent
Apr 10
New
Apr 18
First Quarter
Apr 25
Full
May 2
Last Quarter

Hourly Weather History & Observations

Time (EDT) Temp. Windchill Dew Point Humidity Pressure Visibility Wind Dir Wind Speed Gust Speed Precip Events Conditions
12:55 AM 44.6 °F 39.7 °F 43.2 °F 95% 30.00 in 10.0 mi SSE 9.2 mph - N/A   Clear
1:55 AM 43.2 °F 40.5 °F 42.6 °F 98% 29.99 in 10.0 mi South 4.6 mph - N/A   Clear
2:36 AM 42.8 °F 40.1 °F 41.0 °F 93% 29.98 in 10.0 mi South 4.6 mph - N/A   Partly Cloudy
2:55 AM 41.9 °F 39.0 °F 41.4 °F 98% 29.98 in 10.0 mi South 4.6 mph - N/A   Partly Cloudy
3:07 AM 41.0 °F 39.0 °F 41.0 °F 100% 29.97 in 10.0 mi South 3.5 mph - N/A   Mostly Cloudy
3:25 AM 41.0 °F 39.0 °F 41.0 °F 100% 29.97 in 10.0 mi SSW 3.5 mph - N/A   Overcast
3:41 AM 41.0 °F 39.0 °F 41.0 °F 100% 29.98 in 10.0 mi SSW 3.5 mph - N/A   Scattered Clouds
3:55 AM 40.3 °F 38.2 °F 39.7 °F 98% 29.98 in 6.0 mi NNW 3.5 mph - N/A   Partly Cloudy
4:07 AM 37.4 °F - 37.4 °F 100% 29.99 in 2.5 mi Calm Calm - N/A   Clear
4:09 AM 37.4 °F - 37.4 °F 100% 29.99 in 2.0 mi Calm Calm - N/A   Clear
4:11 AM 39.2 °F - 37.4 °F 93% 29.99 in 1.8 mi Calm Calm - N/A   Clear
4:17 AM 41.0 °F - 39.2 °F 93% 29.99 in 2.0 mi Calm Calm - N/A   Clear
4:19 AM 39.2 °F - 39.2 °F 100% 29.99 in 2.5 mi Calm Calm - N/A   Clear
4:20 AM 39.2 °F - 39.2 °F 100% 29.99 in 3.0 mi Calm Calm - N/A   Clear
4:21 AM 39.2 °F - 39.2 °F 100% 29.99 in 2.5 mi Calm Calm - N/A   Clear
4:22 AM 39.2 °F - 39.2 °F 100% 29.99 in 2.0 mi Calm Calm - N/A   Clear
4:23 AM 39.2 °F - 39.2 °F 100% 29.99 in 1.5 mi Calm Calm - N/A   Clear
4:24 AM 39.2 °F - 37.4 °F 93% 29.99 in 1.0 mi Calm Calm - N/A   Clear
4:26 AM 37.4 °F - 37.4 °F 100% 29.99 in 0.8 mi Calm Calm - N/A   Clear
4:28 AM 37.4 °F - 37.4 °F 100% 29.99 in 0.5 mi Calm Calm - N/A Fog Fog
4:30 AM 35.6 °F - 35.6 °F 100% 29.99 in 0.5 mi Calm Calm - N/A Fog Fog
4:31 AM 35.6 °F - 35.6 °F 100% 29.99 in 0.2 mi Calm Calm - N/A Fog Fog
4:32 AM 35.6 °F - 35.6 °F 100% 29.99 in 0.2 mi Calm Calm - N/A Fog Fog
4:39 AM 37.4 °F - 37.4 °F 100% 29.99 in 0.2 mi Calm Calm - N/A Fog Fog
4:40 AM 37.4 °F - 37.4 °F 100% 29.99 in 0.5 mi Calm Calm - N/A Fog Fog
4:41 AM 37.4 °F - 37.4 °F 100% 29.99 in 0.5 mi Calm Calm - N/A Fog Fog
4:42 AM 37.4 °F - 37.4 °F 100% 29.99 in 0.5 mi Calm Calm - N/A Fog Fog
4:44 AM 37.4 °F - 35.6 °F 93% 29.99 in 0.8 mi Calm Calm - N/A   Clear
4:50 AM 35.6 °F - 33.8 °F 93% 29.99 in 0.5 mi Calm Calm - N/A Fog Fog
4:52 AM 33.8 °F - 33.8 °F 100% 29.99 in 0.5 mi Calm Calm - N/A Fog Fog
4:53 AM 33.8 °F - 33.8 °F 100% 29.99 in 0.5 mi Calm Calm - N/A Fog Fog
4:55 AM 34.9 °F - 34.3 °F 98% 29.99 in 0.5 mi Calm Calm - N/A Fog Fog
5:03 AM 35.6 °F - 35.6 °F 100% 29.99 in 0.5 mi Calm Calm - N/A Fog Fog
5:05 AM 35.6 °F - 35.6 °F 100% 29.99 in 0.5 mi Calm Calm - N/A Fog Fog
5:06 AM 35.6 °F - 35.6 °F 100% 29.99 in 0.5 mi Calm Calm - N/A Fog Fog
5:08 AM 37.4 °F - 35.6 °F 93% 29.99 in 0.8 mi Calm Calm - N/A   Clear
5:10 AM 35.6 °F - 35.6 °F 100% 29.99 in 1.0 mi Calm Calm - N/A   Clear
5:12 AM 35.6 °F - 35.6 °F 100% 29.99 in 1.5 mi Calm Calm - N/A   Clear
5:13 AM 35.6 °F - 33.8 °F 93% 29.99 in 2.0 mi Calm Calm - N/A   Clear
5:16 AM 35.6 °F - 35.6 °F 100% 29.99 in 1.8 mi Calm Calm - N/A   Clear
5:17 AM 35.6 °F - 35.6 °F 100% 29.99 in 1.2 mi Calm Calm - N/A   Clear
5:18 AM 35.6 °F - 35.6 °F 100% 29.99 in 1.0 mi Calm Calm - N/A   Clear
5:20 AM 35.6 °F - 35.6 °F 100% 29.99 in 0.8 mi Calm Calm - N/A   Clear
5:26 AM 33.8 °F - 33.8 °F 100% 30.00 in 0.5 mi Calm Calm - N/A Fog Fog
5:33 AM 33.8 °F - 33.8 °F 100% 30.00 in 0.5 mi Calm Calm - N/A Fog Fog
5:34 AM 33.8 °F - 33.8 °F 100% 30.00 in 0.5 mi Calm Calm - N/A Fog Fog
5:42 AM 33.8 °F - 33.8 °F 100% 30.00 in 0.5 mi Calm Calm - N/A Fog Fog
5:43 AM 33.8 °F - 33.8 °F 100% 30.00 in 0.5 mi Calm Calm - N/A Fog Fog
5:54 AM 33.8 °F - 32.0 °F 93% 30.00 in 0.5 mi Calm Calm - N/A Fog Fog
5:55 AM 33.3 °F - 32.9 °F 99% 30.00 in 0.5 mi Calm Calm - N/A Fog Fog
5:59 AM 33.8 °F - 32.0 °F 93% 30.01 in 0.2 mi Calm Calm - N/A Fog Fog
6:02 AM 33.8 °F - 33.8 °F 100% 30.01 in 0.2 mi Calm Calm - N/A Fog Fog
6:04 AM 33.8 °F - 33.8 °F 100% 30.01 in 0.2 mi Calm Calm - N/A Fog Fog
6:05 AM 33.8 °F - 33.8 °F 100% 30.01 in 0.2 mi Calm Calm - N/A Fog Fog
6:06 AM 33.8 °F - 33.8 °F 100% 30.01 in 0.5 mi Calm Calm - N/A Fog Fog
6:07 AM 33.8 °F - 33.8 °F 100% 30.01 in 0.5 mi Calm Calm - N/A Fog Fog
6:10 AM 33.8 °F - 33.8 °F 100% 30.01 in 0.8 mi Calm Calm - N/A   Clear
6:13 AM 33.8 °F - 33.8 °F 100% 30.01 in 1.0 mi Calm Calm - N/A   Clear
6:16 AM 33.8 °F - 33.8 °F 100% 30.01 in 0.8 mi Calm Calm - N/A   Clear
6:20 AM 33.8 °F - 33.8 °F 100% 30.01 in 0.5 mi Calm Calm - N/A Fog Fog
6:21 AM 33.8 °F - 33.8 °F 100% 30.01 in 0.5 mi Calm Calm - N/A Fog Fog
6:22 AM 33.8 °F - 33.8 °F 100% 30.01 in 0.5 mi Calm Calm - N/A Fog Fog
6:29 AM 33.8 °F - 32.0 °F 93% 30.01 in 0.2 mi Calm Calm - N/A Fog Fog
6:31 AM 32.0 °F - 32.0 °F 100% 30.01 in 0.5 mi Calm Calm - N/A Fog Fog
6:37 AM 33.8 °F - 32.0 °F 93% 30.01 in 0.5 mi Calm Calm - N/A Fog Fog
6:39 AM 33.8 °F - 32.0 °F 93% 30.02 in 0.8 mi Calm Calm - N/A   Clear
6:40 AM 33.8 °F - 32.0 °F 93% 30.02 in 0.8 mi Calm Calm - N/A   Mist
6:41 AM 33.8 °F - 32.0 °F 93% 30.02 in 1.0 mi Calm Calm - N/A   Mist
6:43 AM 33.8 °F - 32.0 °F 93% 30.02 in 1.2 mi Calm Calm - N/A   Partly Cloudy
6:44 AM 33.8 °F - 32.0 °F 93% 30.02 in 1.8 mi Calm Calm - N/A   Scattered Clouds
6:45 AM 33.8 °F - 32.0 °F 93% 30.02 in 2.5 mi Calm Calm - N/A   Scattered Clouds
6:46 AM 33.8 °F - 32.0 °F 93% 30.02 in 4.0 mi Calm Calm - N/A   Scattered Clouds
6:51 AM 33.8 °F - 33.8 °F 100% 30.02 in 1.8 mi Calm Calm - N/A   Scattered Clouds
6:52 AM 33.8 °F - 33.8 °F 100% 30.02 in 1.2 mi Calm Calm - N/A   Scattered Clouds
6:53 AM 33.8 °F - 33.8 °F 100% 30.02 in 1.0 mi Calm Calm - N/A   Mist
6:54 AM 33.8 °F - 33.8 °F 100% 30.02 in 0.8 mi Calm Calm - N/A   Mist
6:55 AM 34.0 °F - 33.6 °F 99% 30.02 in 0.8 mi Calm Calm - N/A   Mist
6:58 AM 33.8 °F - 33.8 °F 100% 30.02 in 0.5 mi Calm Calm - N/A Fog Fog
6:59 AM 33.8 °F - 33.8 °F 100% 30.02 in 0.5 mi Calm Calm - N/A Fog Fog
7:00 AM 33.8 °F - 33.8 °F 100% 30.02 in 0.5 mi Calm Calm - N/A Fog Fog
7:03 AM 33.8 °F - 33.8 °F 100% 30.02 in 0.8 mi Calm Calm - N/A   Mist
7:04 AM 33.8 °F - 33.8 °F 100% 30.02 in 0.8 mi Calm Calm - N/A   Mist
7:07 AM 33.8 °F - 33.8 °F 100% 30.02 in 1.0 mi Calm Calm - N/A   Mist
7:09 AM 33.8 °F - 33.8 °F 100% 30.02 in 1.2 mi Calm Calm - N/A   Scattered Clouds
7:10 AM 33.8 °F - 33.8 °F 100% 30.02 in 1.5 mi Calm Calm - N/A   Partly Cloudy
7:11 AM 33.8 °F - 33.8 °F 100% 30.02 in 1.8 mi Calm Calm - N/A   Partly Cloudy
7:12 AM 33.8 °F - 33.8 °F 100% 30.02 in 2.0 mi Calm Calm - N/A   Partly Cloudy
7:13 AM 33.8 °F - 33.8 °F 100% 30.03 in 2.5 mi Calm Calm - N/A   Partly Cloudy
7:22 AM 35.6 °F - 35.6 °F 100% 30.03 in 3.0 mi Calm Calm - N/A   Clear
7:24 AM 35.6 °F - 35.6 °F 100% 30.03 in 0.5 mi Calm Calm - N/A Fog Fog
7:34 AM - - - N/A% - - Calm Calm - N/A   Unknown
7:44 AM 37.4 °F - 37.4 °F 100% 30.04 in 1.5 mi Calm Calm - N/A   Overcast
7:55 AM 39.0 °F - 38.7 °F 99% 30.04 in 5.0 mi Calm Calm - N/A   Overcast
8:55 AM 44.8 °F 42.4 °F 44.6 °F 99% 30.05 in 10.0 mi NW 4.6 mph - N/A   Clear
9:55 AM 48.9 °F - 36.1 °F 61% 30.07 in 10.0 mi NW 10.4 mph - N/A   Partly Cloudy
10:55 AM 50.9 °F - 35.4 °F 55% 30.09 in 10.0 mi Variable 3.5 mph - N/A   Clear
11:55 AM 54.5 °F - 35.2 °F 48% 30.07 in 10.0 mi North 8.1 mph - N/A   Clear
12:55 PM 57.0 °F - 35.4 °F 44% 30.08 in 10.0 mi Calm Calm - N/A   Clear
1:55 PM 59.9 °F - 35.1 °F 39% 30.07 in 10.0 mi Calm Calm - N/A   Clear
2:55 PM 63.3 °F - 34.7 °F 34% 30.04 in 10.0 mi Variable 4.6 mph - N/A   Clear
3:55 PM 65.7 °F - 34.7 °F 32% 30.03 in 10.0 mi South 4.6 mph - N/A   Clear
4:55 PM 65.1 °F - 33.3 °F 31% 30.02 in 10.0 mi Calm Calm - N/A   Clear
5:55 PM 65.1 °F - 33.4 °F 31% 30.03 in 10.0 mi SE 4.6 mph - N/A   Clear
6:55 PM 62.4 °F - 33.6 °F 34% 30.03 in 10.0 mi Calm Calm - N/A   Clear
7:55 PM 60.1 °F - 33.1 °F 36% 30.03 in 10.0 mi ESE 3.5 mph - N/A   Partly Cloudy
8:55 PM 53.4 °F - 36.5 °F 53% 30.05 in 10.0 mi ESE 3.5 mph - N/A   Scattered Clouds
9:55 PM 52.5 °F - 41.7 °F 67% 30.05 in 10.0 mi Calm Calm - N/A   Scattered Clouds
10:55 PM 54.1 °F - 37.8 °F 54% 30.04 in 10.0 mi SSE 4.6 mph - N/A   Mostly Cloudy
11:55 PM 56.3 °F - 38.8 °F 52% 30.02 in 10.0 mi Variable 4.6 mph - N/A   Partly Cloudy